When you browse on this site, cookies collect data to enhance your experience and personalize the content and advertising you see.
Visit our Privacy Policy to learn more. By continuing to use the site, you agree to this use of cookies and data.
  • In Hungary
  • List of Countries
  • For 7 days
  • Water Temperature
  • Satellite Maps
  • Weather Map
  • News
  • Weather Widgets
  • user-avatar
    Login

    Hourly Weather Kiliya

    Today, 22 April, Monday

    Time Temperature Precipitation Wind Pressure Humidity
    00:00 +8°C° 0 mm 1 mps 767 mmHg 44%
    01:00 +7°C° 0 mm 0 mps 766 mmHg 45%
    02:00 +6°C° 0 mm 0 mps 766 mmHg 45%
    03:00 +6°C° 0 mm 0 mps 766 mmHg 45%
    04:00 +6°C° 0 mm 0 mps 767 mmHg 45%
    05:00 +5°C° 0 mm 0 mps 767 mmHg 46%
    06:00 +8°C° 0 mm 1 mps 767 mmHg 42%
    07:00 +10°C° 0 mm 1 mps 767 mmHg 38%
    08:00 +12°C° 0 mm 2 mps 767 mmHg 35%
    09:00 +14°C° 0 mm 2 mps 767 mmHg 32%
    10:00 +14°C° 0 mm 3 mps 768 mmHg 30%
    11:00 +15°C° 0 mm 4 mps 768 mmHg 28%
    12:00 +17°C° 0 mm 4 mps 768 mmHg 28%
    13:00 +16°C° 0 mm 5 mps 768 mmHg 28%
    14:00 +16°C° 0 mm 5 mps 768 mmHg 28%
    15:00 +16°C° 0 mm 5 mps 768 mmHg 30%
    16:00 +15°C° 0 mm 5 mps 767 mmHg 32%
    17:00 +14°C° 0 mm 5 mps 767 mmHg 34%
    18:00 +13°C° 0 mm 4 mps 768 mmHg 40%
    19:00 +11°C° 0 mm 3 mps 768 mmHg 46%
    20:00 +9°C° 0 mm 2 mps 768 mmHg 52%
    21:00 +9°C° 0 mm 2 mps 769 mmHg 54%
    22:00 +9°C° 0 mm 2 mps 769 mmHg 56%
    23:00 +9°C° 0 mm 2 mps 769 mmHg 58%

    Tomorrow, 23 April, Tuesday

    Time Temperature Precipitation Wind Pressure Humidity
    00:00 +8°C° 0 mm 2 mps 769 mmHg 60%
    01:00 +8°C° 0 mm 2 mps 769 mmHg 62%
    02:00 +8°C° 0 mm 2 mps 769 mmHg 64%
    03:00 +7°C° 0 mm 2 mps 769 mmHg 65%
    04:00 +7°C° 0 mm 2 mps 769 mmHg 67%
    05:00 +7°C° 0 mm 2 mps 770 mmHg 69%
    06:00 +9°C° 0 mm 3 mps 770 mmHg 61%
    07:00 +11°C° 0 mm 4 mps 770 mmHg 54%
    08:00 +13°C° 0 mm 6 mps 770 mmHg 47%
    09:00 +14°C° 0 mm 6 mps 770 mmHg 45%
    10:00 +14°C° 0 mm 6 mps 770 mmHg 43%
    11:00 +15°C° 0 mm 6 mps 770 mmHg 42%
    12:00 +15°C° 0 mm 6 mps 770 mmHg 42%
    13:00 +15°C° 0 mm 6 mps 770 mmHg 43%
    14:00 +15°C° 0 mm 6 mps 770 mmHg 44%
    15:00 +15°C° 0 mm 5 mps 770 mmHg 46%
    16:00 +14°C° 0 mm 5 mps 770 mmHg 47%
    17:00 +14°C° 0 mm 5 mps 770 mmHg 49%
    18:00 +12°C° 0 mm 4 mps 770 mmHg 54%
    19:00 +11°C° 0 mm 3 mps 770 mmHg 59%
    20:00 +10°C° 0 mm 3 mps 770 mmHg 64%
    21:00 +10°C° 0 mm 2 mps 770 mmHg 67%
    22:00 +9°C° 0 mm 2 mps 770 mmHg 69%
    23:00 +8°C° 0 mm 2 mps 770 mmHg 72%

    Day after tomorrow, 24 April, Wednesday

    Time Temperature Precipitation Wind Pressure Humidity
    00:00 +9°C° 0 mm 2 mps 770 mmHg 70%
    01:00 +9°C° 0 mm 2 mps 770 mmHg 68%
    02:00 +10°C° 0 mm 1 mps 770 mmHg 67%
    03:00 +10°C° 0 mm 1 mps 770 mmHg 66%
    04:00 +10°C° 0 mm 1 mps 770 mmHg 66%
    05:00 +10°C° 0 mm 1 mps 770 mmHg 66%
    06:00 +10°C° 0 mm 2 mps 770 mmHg 63%
    07:00 +12°C° 0 mm 2 mps 771 mmHg 59%
    08:00 +13°C° 0 mm 2 mps 771 mmHg 56%
    09:00 +13°C° 0 mm 3 mps 771 mmHg 53%
    10:00 +14°C° 0 mm 3 mps 771 mmHg 50%
    11:00 +15°C° 0 mm 4 mps 771 mmHg 47%
    12:00 +17°C° 0 mm 4 mps 771 mmHg 46%
    13:00 +16°C° 0 mm 5 mps 771 mmHg 44%
    14:00 +17°C° 0 mm 5 mps 771 mmHg 43%
    15:00 +16°C° 0 mm 5 mps 770 mmHg 46%
    16:00 +16°C° 0 mm 5 mps 770 mmHg 48%
    17:00 +15°C° 0 mm 5 mps 770 mmHg 50%
    18:00 +13°C° 0 mm 4 mps 770 mmHg 60%
    19:00 +12°C° 0 mm 3 mps 770 mmHg 69%
    20:00 +10°C° 0 mm 3 mps 771 mmHg 78%
    21:00 +10°C° 0 mm 2 mps 771 mmHg 82%
    22:00 +9°C° 0 mm 2 mps 771 mmHg 87%
    23:00 +9°C° 0 mm 2 mps 771 mmHg 91%

    25 April, Thursday

    Time Temperature Precipitation Wind Pressure Humidity
    00:00 +8°C° 0 mm 2 mps 771 mmHg 90%
    01:00 +8°C° 0 mm 2 mps 771 mmHg 90%
    02:00 +8°C° 0 mm 2 mps 771 mmHg 89%
    03:00 +8°C° 0 mm 2 mps 771 mmHg 89%
    04:00 +8°C° 0 mm 2 mps 771 mmHg 88%
    05:00 +8°C° 0 mm 2 mps 771 mmHg 87%
    06:00 +10°C° 0 mm 3 mps 771 mmHg 77%
    07:00 +12°C° 0 mm 3 mps 771 mmHg 68%
    08:00 +14°C° 0 mm 4 mps 771 mmHg 58%
    09:00 +15°C° 0 mm 4 mps 771 mmHg 53%
    10:00 +16°C° 0 mm 5 mps 771 mmHg 48%
    11:00 +19°C° 0 mm 5 mps 771 mmHg 43%
    12:00 +19°C° 0 mm 5 mps 771 mmHg 42%
    13:00 +19°C° 0 mm 5 mps 771 mmHg 41%
    14:00 +19°C° 0 mm 5 mps 771 mmHg 39%
    15:00 +19°C° 0 mm 5 mps 770 mmHg 41%
    16:00 +17°C° 0 mm 5 mps 770 mmHg 43%
    17:00 +16°C° 0 mm 5 mps 770 mmHg 45%
    18:00 +15°C° 0 mm 4 mps 770 mmHg 52%
    19:00 +13°C° 0 mm 3 mps 770 mmHg 59%
    20:00 +11°C° 0 mm 3 mps 770 mmHg 66%
    21:00 +12°C° 0 mm 2 mps 770 mmHg 68%
    22:00 +10°C° 0 mm 2 mps 770 mmHg 71%
    23:00 +9°C° 0 mm 2 mps 770 mmHg 73%

    26 April, Friday

    Time Temperature Precipitation Wind Pressure Humidity
    00:00 +10°C° 0 mm 1 mps 770 mmHg 74%
    01:00 +10°C° 0 mm 1 mps 770 mmHg 75%
    02:00 +10°C° 0 mm 1 mps 769 mmHg 76%
    03:00 +9°C° 0 mm 1 mps 769 mmHg 76%
    04:00 +9°C° 0 mm 1 mps 769 mmHg 76%
    05:00 +9°C° 0 mm 1 mps 769 mmHg 76%
    06:00 +11°C° 0 mm 1 mps 769 mmHg 67%
    07:00 +13°C° 0 mm 2 mps 769 mmHg 59%
    08:00 +15°C° 0 mm 2 mps 769 mmHg 50%
    09:00 +17°C° 0 mm 3 mps 769 mmHg 45%
    10:00 +19°C° 0 mm 3 mps 769 mmHg 40%
    11:00 +20°C° 0 mm 3 mps 768 mmHg 35%
    12:00 +21°C° 0 mm 4 mps 768 mmHg 34%
    13:00 +21°C° 0 mm 4 mps 768 mmHg 33%
    14:00 +22°C° 0 mm 4 mps 767 mmHg 32%
    15:00 +21°C° 0 mm 4 mps 767 mmHg 34%
    16:00 +21°C° 0 mm 4 mps 766 mmHg 36%
    17:00 +20°C° 0 mm 4 mps 766 mmHg 38%
    18:00 +18°C° 0 mm 3 mps 766 mmHg 45%
    19:00 +16°C° 0 mm 3 mps 766 mmHg 52%
    20:00 +13°C° 0 mm 3 mps 766 mmHg 59%
    21:00 +13°C° 0 mm 2 mps 766 mmHg 61%
    22:00 +13°C° 0 mm 2 mps 766 mmHg 64%
    23:00 +12°C° 0 mm 2 mps 766 mmHg 66%

    27 April, Saturday

    Time Temperature Precipitation Wind Pressure Humidity
    00:00 +12°C° 0 mm 1 mps 766 mmHg 67%
    01:00 +11°C° 0 mm 1 mps 765 mmHg 68%
    02:00 +11°C° 0 mm 1 mps 765 mmHg 69%
    03:00 +11°C° 0 mm 1 mps 765 mmHg 70%
    04:00 +11°C° 0 mm 1 mps 765 mmHg 71%
    05:00 +11°C° 0 mm 1 mps 765 mmHg 71%
    06:00 +13°C° 0 mm 1 mps 765 mmHg 64%
    07:00 +15°C° 0 mm 2 mps 765 mmHg 57%
    08:00 +17°C° 0 mm 2 mps 765 mmHg 51%
    09:00 +18°C° 0 mm 3 mps 765 mmHg 47%
    10:00 +20°C° 0 mm 3 mps 765 mmHg 42%
    11:00 +22°C° 0 mm 4 mps 764 mmHg 38%
    12:00 +22°C° 0 mm 4 mps 764 mmHg 37%
    13:00 +23°C° 0 mm 4 mps 764 mmHg 37%
    14:00 +23°C° 0 mm 4 mps 763 mmHg 36%
    15:00 +22°C° 0 mm 4 mps 763 mmHg 39%
    16:00 +22°C° 0 mm 4 mps 763 mmHg 41%
    17:00 +21°C° 0 mm 4 mps 762 mmHg 44%
    18:00 +19°C° 0 mm 3 mps 763 mmHg 51%
    19:00 +17°C° 0 mm 3 mps 763 mmHg 57%
    20:00 +15°C° 0 mm 2 mps 763 mmHg 64%
    21:00 +15°C° 0 mm 2 mps 763 mmHg 67%
    22:00 +14°C° 0 mm 1 mps 763 mmHg 69%
    23:00 +14°C° 0 mm 1 mps 763 mmHg 71%
    Show more